Location: Grange Rosano
(44.4500°N, 6.9667°E)
Time: 08:52:45
(UTC+00:00)

USA 229 - Pass Details

Date: 26 May 2022
Orbit: 938 x 1274 km, 63.4° (Epoch: 24 May)

Event Time Altitude Azimuth Distance (km) Brightness Sun altitude
Rises 01:02:01 0° 318° (NW) 4,004 7.0 -21.1°
Reaches altitude 10° 01:04:45 10° 313° (NW) 3,087 6.3 -20.9°
Maximum altitude 01:11:48 47° 243° (WSW) 1,570 4.2 -20.4°
Enters shadow 01:15:15 30° 190° (S) 2,066 4.6 -20.1°
